Temp_Advection
nan nan nan nan nan nan nan nan nan nan nan nan nan nan nan nan nan nan nan nan nan nan
nan -0 -0 -0 -0 -0 0 -0 -0 -1 -1 -0 -0 -0 -0 -0 -0 -0 -1 -0 -0 nan
nan -0 -0 -0 -0 -1 -1 -1 -1 -1 -0 -0 -0 -0 -0 -0 -0 -0 -0 -0 -1 nan
nan -0 -0 -0 -1 -1 -1 -1 -1 -0 -0 -0 -0 -0 -1 -1 -1 -0 -0 -0 -0 nan
nan -0 -0 -0 -0 -0 -0 -0 -0 -0 -0 -0 -0 -1 -1 -1 -1 -0 -0 -0 -0 nan
nan -0 -1 -0 -0 -0 -0 -0 -0 -0 -0 -0 -1 -0 -0 -0 -0 -0 -0 -0 -0 nan
nan -0 -0 -0 -0 -0 -0 -0 -0 -0 -0 -1 -0 -1 -0 -0 0 -0 -0 -0 -0 nan
nan -0 -0 -0 -0 0 -0 -0 -0 0 -0 -0 -0 1 -0 -0 1 0 -0 0 -0 nan
nan -0 -0 -0 -0 -0 -0 -0 0 -0 -0 -0 0 1 1 1 0 0 0 -0 -0 nan
nan -0 -0 -0 0 -0 -0 -0 0 -0 0 0 -0 0 1 -0 -0 0 0 -0 -1 nan
nan 0 0 0 -0 -0 -0 0 0 0 0 0 -0 -1 -2 -1 -0 -0 -0 -0 -0 nan
nan 1 1 -0 -1 -0 0 0 0 0 0 -0 -0 -1 -1 -0 -1 -0 -0 -0 -0 nan
nan -0 -0 -1 -0 0 0 0 0 0 -0 0 -0 -0 0 0 -1 -0 -0 -0 -0 nan
nan nan nan nan nan nan nan nan nan nan nan nan nan nan nan nan nan nan nan nan nan nan
Wind_Speed
23 23 22 23 25 25 26 27 27 27 29 29 30 27 25 24 24 23 22 20 18 14
23 24 22 22 23 24 27 28 26 27 25 28 30 29 27 28 26 25 24 24 23 24
21 22 22 21 23 25 27 28 28 26 27 27 30 31 28 28 28 27 26 26 27 29
22 22 22 22 23 24 25 25 26 26 26 27 27 30 28 26 27 28 29 30 30 29
20 21 21 23 23 23 24 24 26 27 26 30 30 27 25 28 26 28 28 31 32 29
20 21 21 22 22 22 23 24 25 26 28 29 31 30 27 24 27 27 28 27 29 30
20 19 20 21 22 22 23 23 24 25 27 28 29 30 29 25 24 24 25 27 27 27
18 19 20 21 21 21 22 23 23 24 26 27 30 34 30 24 25 24 25 24 24 26
18 19 21 21 21 21 22 23 24 27 29 30 31 34 29 24 21 22 23 23 22 22
19 20 21 21 21 21 22 22 23 25 27 27 31 35 28 28 21 21 21 22 22 22
19 20 20 21 21 21 21 23 24 26 27 27 30 34 31 26 21 20 20 20 22 22
18 21 21 20 20 20 21 22 22 22 23 25 26 34 34 27 22 20 19 18 19 23
17 19 20 20 20 19 18 19 20 21 22 25 27 32 34 32 24 20 19 17 18 22
16 16 18 18 18 19 19 19 20 21 21 23 27 30 32 31 27 24 20 19 20 20
Wind_Direction
8 3 1 359 4 7 4 0 358 359 360 358 0 2 2 0 359 3 5 7 9 356
6 2 2 4 0 3 3 2 3 4 2 3 5 5 7 5 4 8 9 12 21 20
4 2 5 5 3 4 5 5 5 5 5 3 4 8 6 5 6 11 13 16 21 21
5 4 3 6 7 5 5 4 5 5 6 5 4 5 6 7 8 11 14 20 23 15
5 7 3 5 7 7 5 6 7 8 10 7 8 6 8 5 8 10 17 19 21 16
8 6 6 6 6 7 6 8 9 8 14 11 5 8 8 7 9 14 15 23 19 19
9 5 4 5 8 9 9 8 9 8 9 14 6 7 6 12 9 13 19 18 18 22
8 7 9 9 8 9 10 10 8 6 8 9 9 9 5 20 6 11 16 19 18 14
9 10 13 13 11 10 10 9 6 10 8 7 11 11 11 23 8 10 14 18 19 18
11 13 15 15 14 13 9 7 7 8 7 10 6 11 17 28 11 12 15 14 20 20
15 16 16 17 15 15 11 9 8 7 9 9 2 12 18 28 12 14 13 16 19 21
15 21 22 19 15 13 11 9 8 6 8 7 7 7 11 22 14 15 14 16 11 19
15 21 24 20 15 14 13 10 10 9 9 5 7 4 13 18 11 15 12 11 12 3
20 19 20 19 16 14 15 14 14 13 10 10 6 9 15 15 16 15 6 9 7 6
Height
1525 1521 1515 1508 1500 1494 1488 1483 1477 1470 1464 1457 1448 1441 1435 1429 1423 1416 1409 1403 1396 1389
1528 1523 1516 1509 1503 1495 1490 1483 1477 1471 1466 1458 1450 1442 1436 1429 1423 1416 1409 1403 1395 1389
1528 1524 1517 1510 1504 1495 1490 1484 1478 1472 1466 1460 1453 1444 1438 1432 1425 1417 1411 1404 1396 1390
1529 1525 1518 1511 1505 1498 1491 1485 1481 1474 1468 1461 1455 1448 1440 1434 1428 1420 1413 1404 1396 1394
1530 1525 1520 1512 1506 1500 1495 1488 1482 1476 1470 1463 1455 1449 1442 1435 1429 1423 1415 1406 1400 1399
1530 1526 1520 1513 1507 1502 1496 1490 1484 1478 1472 1467 1459 1451 1445 1440 1431 1425 1418 1413 1407 1403
1532 1527 1521 1515 1509 1504 1498 1493 1487 1481 1475 1469 1463 1453 1445 1440 1436 1431 1425 1419 1414 1407
1533 1527 1521 1515 1511 1506 1501 1496 1490 1483 1477 1471 1464 1457 1449 1443 1439 1434 1428 1424 1419 1413
1534 1527 1521 1516 1512 1508 1503 1498 1492 1485 1479 1473 1466 1458 1452 1447 1445 1439 1433 1428 1424 1419
1535 1529 1523 1518 1513 1509 1505 1501 1496 1490 1484 1477 1469 1461 1454 1448 1448 1444 1438 1433 1427 1423
1536 1530 1525 1520 1515 1511 1507 1503 1499 1493 1488 1481 1474 1464 1457 1453 1451 1447 1442 1437 1430 1426
1537 1532 1527 1523 1518 1514 1511 1507 1503 1498 1492 1486 1479 1469 1461 1455 1453 1450 1446 1441 1435 1427
1540 1534 1529 1525 1522 1519 1515 1511 1507 1501 1496 1489 1482 1472 1464 1457 1455 1450 1447 1443 1438 1430
1541 1537 1533 1529 1526 1522 1518 1514 1509 1504 1499 1493 1485 1477 1468 1461 1456 1450 1448 1443 1437 1432